JZR295 OMDB-VOBL

Flight info

Callsign JZR295
Flight time N/A
Altitude 35000
Route IVURO M677 KUSEN A791 GIDIL L700 BUBAS Z890 MCT T503 TUMET A775 REXOD N563 GUNIM GUNIM7E
Aircraft A320/M-SDE3FGHIRWY/LB1

Departure

Time 2026-04-23 09:31
Airport Dubai International Airport (OMDB)

Arrival

Time N/A
Airport Kempegowda International Airport Bengaluru (VOBL)
Time Latitude Longitude Altitude Speed Heading
2026-04-23 09:05 25.25843 55.34573 28 ft 0 kts 210°
2026-04-23 09:19 25.25854 55.34580 26 ft 3 kts 210°
2026-04-23 09:19 25.25872 55.34592 23 ft 3 kts 208°
2026-04-23 09:20 25.25890 55.34602 24 ft 3 kts 202°
2026-04-23 09:20 25.25908 55.34609 24 ft 3 kts 180°
2026-04-23 09:20 25.25922 55.34606 24 ft 2 kts 129°
2026-04-23 09:20 25.25924 55.34604 26 ft 0 kts 122°
2026-04-23 09:23 25.25924 55.34605 26 ft 2 kts 122°
2026-04-23 09:23 25.25897 55.34654 23 ft 12 kts 120°
2026-04-23 09:23 25.25854 55.34733 24 ft 11 kts 122°
2026-04-23 09:23 25.25807 55.34816 22 ft 16 kts 121°
2026-04-23 09:24 25.25741 55.34937 22 ft 19 kts 118°
2026-04-23 09:24 25.25800 55.35035 22 ft 17 kts 32°
2026-04-23 09:24 25.25903 55.35106 25 ft 18 kts 32°
2026-04-23 09:24 25.26011 55.35176 22 ft 18 kts 30°
2026-04-23 09:25 25.26116 55.35255 23 ft 16 kts 63°
2026-04-23 09:25 25.26075 55.35372 22 ft 19 kts 122°
2026-04-23 09:25 25.25997 55.35516 24 ft 25 kts 121°
2026-04-23 09:25 25.25898 55.35696 24 ft 30 kts 122°
2026-04-23 09:26 25.25786 55.35897 22 ft 31 kts 121°
2026-04-23 09:26 25.25674 55.36099 22 ft 31 kts 123°
2026-04-23 09:26 25.25561 55.36300 22 ft 31 kts 121°
2026-04-23 09:26 25.25450 55.36503 22 ft 31 kts 121°
2026-04-23 09:27 25.25338 55.36703 22 ft 31 kts 121°
2026-04-23 09:27 25.25226 55.36904 22 ft 31 kts 120°
2026-04-23 09:27 25.25116 55.37108 23 ft 31 kts 122°
2026-04-23 09:27 25.25003 55.37308 23 ft 31 kts 121°
2026-04-23 09:28 25.24891 55.37510 24 ft 31 kts 121°
2026-04-23 09:28 25.24780 55.37709 22 ft 28 kts 121°
2026-04-23 09:28 25.24718 55.37857 22 ft 15 kts 75°
2026-04-23 09:28 25.24744 55.37888 21 ft 0 kts 26°
2026-04-23 09:29 25.24746 55.37889 22 ft 3 kts 27°
2026-04-23 09:29 25.24803 55.37925 23 ft 14 kts 30°
2026-04-23 09:29 25.24878 55.37895 22 ft 5 kts 300°
2026-04-23 09:30 25.24879 55.37895 21 ft 0 kts 300°
2026-04-23 09:30 25.24894 55.37866 22 ft 23 kts 301°
2026-04-23 09:30 25.25124 55.37450 22 ft 101 kts 302°
2026-04-23 09:30 25.25607 55.36583 24 ft 161 kts 302°
2026-04-23 09:31 25.26243 55.35440 376 ft 183 kts 303°
2026-04-23 09:31 25.26919 55.34200 973 ft 191 kts 306°
2026-04-23 09:31 25.27642 55.32950 1593 ft 196 kts 304°
2026-04-23 09:31 25.28443 55.31707 2068 ft 202 kts 315°
2026-04-23 09:32 25.29633 55.30778 2277 ft 220 kts 339°
2026-04-23 09:32 25.31129 55.30316 2744 ft 224 kts 347°
2026-04-23 09:32 25.32643 55.29895 3275 ft 226 kts 345°
2026-04-23 09:32 25.34215 55.29648 3800 ft 232 kts
2026-04-23 09:33 25.35855 55.29738 4293 ft 239 kts
2026-04-23 09:33 25.37531 55.29897 4779 ft 244 kts
2026-04-23 09:33 25.39214 55.30251 5283 ft 249 kts 18°
2026-04-23 09:33 25.40800 55.31057 5792 ft 254 kts 33°
2026-04-23 09:34 25.42140 55.32311 6275 ft 258 kts 51°
2026-04-23 09:34 25.43218 55.33957 6596 ft 273 kts 56°
2026-04-23 09:34 25.44353 55.35745 6790 ft 293 kts 54°
2026-04-23 09:34 25.45590 55.37572 7267 ft 300 kts 52°
2026-04-23 09:35 25.46884 55.39407 7848 ft 304 kts 51°
2026-04-23 09:35 25.48215 55.41247 8456 ft 307 kts 51°
2026-04-23 09:35 25.49554 55.43101 9086 ft 310 kts 51°
2026-04-23 09:35 25.50848 55.45029 9684 ft 314 kts 60°
2026-04-23 09:36 25.51600 55.47300 10189 ft 319 kts 82°
2026-04-23 09:36 25.51543 55.49794 10313 ft 334 kts 107°
2026-04-23 09:36 25.50847 55.52320 10437 ft 353 kts 110°
2026-04-23 09:36 25.50076 55.54965 10727 ft 365 kts 110°
2026-04-23 09:37 25.49292 55.57660 11252 ft 369 kts 110°
2026-04-23 09:37 25.48509 55.60378 11829 ft 371 kts 110°
2026-04-23 09:37 25.47730 55.63111 12402 ft 374 kts 110°
2026-04-23 09:37 25.46946 55.65866 12989 ft 376 kts 110°
2026-04-23 09:38 25.46156 55.68644 13563 ft 379 kts 111°
2026-04-23 09:38 25.45362 55.71431 14071 ft 381 kts 111°
2026-04-23 09:38 25.44563 55.74244 14565 ft 384 kts 111°
2026-04-23 09:38 25.43759 55.77076 15063 ft 387 kts 111°
2026-04-23 09:39 25.42950 55.79926 15556 ft 390 kts 111°
2026-04-23 09:39 25.42136 55.82799 16053 ft 392 kts 111°
2026-04-23 09:39 25.41593 55.84709 16385 ft 394 kts 111°
2026-04-23 09:39 25.40767 55.87610 16878 ft 397 kts 111°
2026-04-23 09:40 25.39661 55.91480 17529 ft 400 kts 111°
2026-04-23 09:40 25.38816 55.94428 18054 ft 403 kts 111°
2026-04-23 09:40 25.37967 55.97386 18486 ft 405 kts 110°
2026-04-23 09:40 25.37389 55.99400 18763 ft 408 kts 110°
2026-04-23 09:41 25.36526 56.02405 19166 ft 411 kts 110°
2026-04-23 09:41 25.35657 56.05430 19568 ft 415 kts 110°